Вернуться в каталог

STARLINK-37375

АктивенСвязьSSO
NORAD 100228·PAYLOAD·🇺🇸 United States

Запущен Aug 4, 2026 с Vandenberg Space Force Base

Loading…

Ближайшие Пролёты (ближайшие 24 часа)

TLE

СвежийSource: Space-Track

Эпоха: Sep 14, 2026, 22:22 UTC

1 A0228U 26177R   26257.93207184  .00073913  00000-0  13467-2 0  9997
2 A0228  97.2832 308.7550 0001417  89.3950 270.7463 15.49215825  7682

Отслеживайте STARLINK-37375 в реальном времени с AllMySat

Download on the App Store